RH
4 4 4 4 4 5 6 6 7 8 9 12 31 32 26 24 26 44 44 45 48 49 61 64 68 90 81 85 79 54 47 48 47 60 47 42 36 31 38 33 29 37 22
4 3 4 4 4 4 5 6 6 7 8 23 34 39 49 48 42 40 43 46 48 54 68 87 84 70 65 61 72 61 51 49 44 37 47 49 47 53 48 39 26 28 33
3 3 4 4 4 5 6 7 10 13 20 27 32 33 47 53 54 45 43 35 48 59 57 37 18 14 31 48 52 61 61 56 56 46 38 44 47 56 57 47 37 18 15
4 4 4 4 8 9 11 16 14 19 22 27 36 43 34 36 38 41 39 34 30 25 40 26 14 12 11 14 37 43 70 90 78 65 60 52 59 62 58 43 23 19 9
12 16 13 10 15 10 13 16 17 19 23 31 33 31 37 39 42 52 50 51 40 48 33 18 16 14 12 11 10 10 14 46 56 69 65 67 74 72 59 49 28 17 10
29 22 10 15 23 25 24 27 30 30 32 38 33 32 30 34 57 64 52 37 33 37 29 21 18 13 10 11 10 8 8 11 36 72 75 78 72 35 25 15 12 9 7
37 28 14 21 28 34 50 49 35 38 39 41 43 46 50 67 80 86 58 49 48 44 29 16 12 9 6 6 6 7 8 8 9 9 10 10 10 9 10 9 8 6 6
46 47 35 28 51 61 66 74 77 54 46 49 65 75 78 91 87 70 70 60 59 43 28 18 16 11 8 7 6 7 7 9 9 10 10 8 7 7 6 5 6 9 10
53 56 57 63 71 68 65 69 77 87 63 59 73 87 54 96 84 90 84 88 65 62 40 28 29 24 8 8 8 8 9 11 10 8 7 14 16 12 10 10 12 16 24
65 63 61 68 71 70 74 72 74 79 79 92 94 92 92 81 77 72 75 99 95 72 63 46 30 15 9 9 9 9 10 12 11 7 12 16 18 15 12 12 22 26 32
70 63 68 71 70 71 74 77 75 70 74 74 79 92 92 74 63 67 96 98 86 73 66 50 30 13 10 10 9 9 10 10 8 7 15 16 16 15 16 17 26 24 33
68 66 76 82 87 84 77 83 76 86 69 57 73 84 87 90 91 90 97 100 84 70 60 39 17 12 12 11 12 13 11 9 6 10 17 16 16 17 23 31 30 30 36
66 66 76 66 84 76 90 76 60 66 83 86 87 56 83 94 92 100 92 98 94 75 75 71 18 13 14 16 13 13 15 13 8 15 20 24 22 30 36 36 35 33 36
56 59 62 64 84 78 68 60 54 55 73 89 70 90 94 92 98 100 94 90 86 88 80 32 13 14 15 15 12 9 11 14 11 19 32 41 38 40 37 33 35 35 41
52 51 55 56 60 57 56 56 55 55 71 84 94 91 90 94 99 95 88 99 91 83 35 14 14 10 9 8 8 10 15 16 21 24 37 39 40 37 20 32 45 47 47
54 50 51 54 53 48 46 51 53 62 82 90 97 96 96 95 96 97 89 97 84 76 21 15 10 9 9 12 13 17 20 29 40 44 40 34 27 16 20 52 51 49 43
45 52 52 48 47 48 47 50 54 67 86 87 94 97 97 96 77 84 95 91 53 15 16 14 10 9 10 12 20 28 30 37 47 42 18 7 6 6 29 41 45 48 47
10 39 52 56 54 52 52 58 65 73 86 92 95 96 95 92 99 98 84 40 33 18 18 12 11 11 14 30 41 42 39 46 36 21 7 7 6 6 10 31 26 40 51
7 11 25 38 53 62 63 68 83 87 95 96 96 87 88 93 94 77 32 23 20 23 16 13 13 14 27 46 48 44 43 51 23 8 10 10 6 6 9 10 9 16 39
14 18 23 34 49 65 81 83 93 89 92 83 88 96 96 89 51 30 19 20 25 20 16 17 17 23 41 51 51 47 41 28 16 13 21 15 7 10 10 9 8 7 8
61 66 70 73 74 77 92 94 92 98 97 97 99 95 82 37 20 21 24 25 21 22 22 22 22 32 50 56 46 40 29 12 11 15 13 8 8 12 13 12 12 12 11
84 89 81 85 88 95 98 91 89 99 99 90 87 63 30 28 25 25 24 23 26 29 30 29 27 35 55 67 50 29 22 17 19 14 10 9 10 14 15 14 13 16 15
98 92 93 88 76 86 88 96 89 83 94 90 75 34 28 27 25 23 24 33 40 41 35 24 17 33 55 48 35 29 26 30 17 13 17 23 22 21 18 16 19 18 17
93 97 96 92 94 94 94 95 89 72 43 31 29 24 18 13 14 18 22 26 30 31 31 32 35 55 78 80 76 44 18 14 21 31 36 33 31 28 26 25 22 22 22
97 97 97 95 87 44 27 30 30 28 19 11 10 12 14 15 17 19 22 28 41 54 59 60 66 65 57 54 34 26 17 31 49 48 42 41 39 36 33 31 29 27 23
37 28 24 26 29 28 20 10 7 9 11 11 11 9 9 9 11 12 22 39 45 46 48 50 42 28 21 17 14 15 21 42 53 50 45 47 47 46 42 38 34 26 18
Wind_Speed
9 8 7 6 5 6 5 4 2 2 3 5 6 5 6 8 10 11 14 16 22 23 27 28 35 36 37 36 32 31 31 29 28 27 30 30 31 34 34 36 35 31 29
8 7 6 5 4 3 3 3 2 2 2 2 2 6 8 10 12 14 17 18 22 27 30 33 32 37 35 33 36 36 37 37 36 37 34 34 34 32 35 34 35 35 33
11 10 8 8 7 6 6 7 7 7 8 6 5 7 7 10 14 16 18 22 23 26 31 31 31 31 30 31 38 43 44 44 42 41 41 40 39 40 38 36 34 33 34
14 13 13 11 11 11 12 12 12 12 10 10 11 13 13 15 14 15 17 20 23 26 28 33 36 38 37 37 37 40 44 45 49 48 47 47 49 47 43 39 38 41 37
15 15 14 14 13 14 15 14 13 14 16 15 14 17 20 18 15 15 16 18 22 25 27 33 35 39 41 42 41 41 39 34 37 46 49 51 52 51 50 47 46 47 45
16 15 17 20 15 14 14 12 13 15 18 18 19 21 22 22 25 28 16 18 21 28 32 34 38 37 41 46 47 45 44 43 39 43 50 53 52 53 52 52 51 47 46
19 17 20 21 20 18 17 17 19 22 23 26 24 26 31 31 32 22 31 31 32 30 34 34 36 39 37 40 44 46 45 46 46 48 52 54 55 56 56 54 52 49 45
22 19 22 26 23 23 24 22 24 25 27 26 27 31 36 37 34 27 36 38 32 35 38 38 39 44 44 47 48 49 48 46 49 51 52 53 57 58 55 51 48 45 44
27 26 27 29 27 27 28 29 28 30 30 30 32 34 24 38 30 32 33 41 37 39 40 41 44 47 44 46 46 48 47 48 50 53 55 53 52 50 50 46 44 44 42
37 36 34 34 35 33 34 35 36 36 33 38 40 47 44 34 35 35 41 43 43 41 43 45 45 46 48 50 50 50 51 51 53 54 52 52 50 46 46 48 45 45 44
43 44 41 41 43 41 39 42 40 41 41 44 47 51 49 34 36 44 46 35 50 41 45 50 52 51 48 47 50 49 49 49 50 53 52 50 49 49 51 47 47 46 45
48 52 54 51 48 45 47 47 54 46 42 49 54 52 56 51 46 52 55 35 42 37 46 53 54 52 52 53 51 48 49 48 49 49 51 51 47 48 46 45 44 45 47
51 54 51 41 41 45 52 46 46 47 53 54 51 54 57 55 49 56 55 41 48 46 50 56 54 52 52 51 48 50 53 50 50 51 50 46 43 41 42 44 44 46 46
50 49 49 53 43 49 52 54 47 49 53 59 59 61 61 55 54 61 60 46 51 56 54 57 54 53 50 49 51 51 53 50 49 50 48 42 39 37 39 42 43 41 41
54 54 53 50 48 51 52 52 52 56 54 61 51 54 62 57 55 56 61 54 59 58 52 54 54 49 49 49 52 52 52 49 47 47 43 41 37 35 36 38 35 34 37
53 50 54 56 53 51 53 57 59 53 52 55 48 59 59 61 60 40 59 59 63 59 52 54 52 50 50 52 53 51 49 44 42 43 39 37 37 36 34 33 34 32 32
60 59 56 52 49 52 51 54 57 57 60 62 52 47 57 45 51 48 49 56 53 54 54 53 52 51 50 49 48 47 44 41 40 40 39 36 35 34 32 33 31 31 29
54 60 60 59 57 57 56 56 57 60 63 60 63 46 54 52 53 55 49 50 53 53 52 51 50 49 45 42 41 41 40 39 37 37 36 37 36 35 31 29 29 28 28
50 53 55 57 60 56 55 56 55 60 63 57 49 48 44 47 47 49 50 52 52 54 52 49 48 46 41 39 39 39 39 36 35 34 35 37 33 31 24 21 22 24 26
45 49 53 53 59 57 50 51 50 54 57 55 47 40 46 48 47 52 54 54 54 52 50 48 46 42 38 37 36 37 36 34 34 33 34 35 32 24 20 21 21 22 25
34 35 39 43 46 51 47 51 52 52 54 53 44 42 43 47 51 52 52 53 50 48 47 46 44 41 38 34 34 33 34 34 34 34 34 33 29 26 24 23 24 24 24
41 43 43 40 45 45 46 50 56 56 49 44 42 44 46 46 50 51 50 50 47 47 45 42 41 40 38 36 34 34 34 33 33 34 31 29 28 26 27 27 27 25 24
38 39 40 42 48 49 51 53 53 49 39 45 45 47 46 47 48 49 47 46 45 43 42 41 41 38 36 35 34 34 35 34 31 28 26 26 26 27 28 28 26 24 24
32 30 35 45 50 51 50 50 37 35 37 40 41 40 40 41 42 42 41 41 41 40 40 39 38 38 37 36 36 34 32 28 25 26 27 27 28 28 27 26 25 25 26
25 29 46 32 24 25 29 30 31 31 33 36 36 37 40 41 42 43 42 41 40 39 38 38 37 36 36 35 34 32 29 27 27 28 28 29 28 27 25 26 26 26 25
10 15 17 19 22 25 26 27 29 32 35 36 35 36 38 39 40 41 41 41 41 39 38 37 36 35 33 30 29 28 28 28 29 29 30 29 28 28 26 27 27 25 25
Wind_Direction
187 179 173 164 143 136 136 141 133 93 58 52 55 25 354 340 330 327 326 320 320 319 299 313 304 313 303 291 293 295 297 299 300 306 306 312 314 312 312 312 311 314 312
226 212 199 197 196 197 188 196 240 262 206 152 341 350 354 330 323 320 314 313 314 309 315 317 322 318 312 281 287 288 291 296 301 301 301 302 305 312 310 310 309 303 302
251 242 235 230 221 220 215 210 208 201 198 217 269 284 294 308 320 320 320 325 318 315 318 323 321 328 329 312 292 290 289 287 289 291 294 300 302 306 309 308 309 309 306
246 241 237 226 213 203 202 207 209 210 218 235 252 267 277 279 284 304 314 315 315 316 321 326 326 326 329 329 323 318 306 291 281 283 290 298 303 306 309 306 305 306 300
245 245 238 213 212 206 205 211 220 223 229 236 251 264 265 263 259 284 304 315 326 323 322 318 316 319 322 317 314 313 310 309 307 284 289 298 301 302 300 301 301 301 297
245 243 218 201 205 216 228 247 248 249 256 259 292 297 287 274 282 286 310 316 320 322 323 318 316 319 320 315 312 313 314 312 307 295 292 296 297 297 300 299 297 298 295
256 240 219 218 229 235 242 250 249 250 260 277 288 289 294 294 314 311 336 330 326 315 317 318 319 322 317 310 309 309 307 307 306 302 302 302 301 299 299 299 299 296 288
244 248 245 237 241 247 256 270 276 264 264 272 282 288 296 301 315 325 332 329 315 316 319 321 324 320 318 314 313 308 308 309 308 306 303 302 301 299 299 297 295 288 287
240 244 246 251 256 266 269 271 278 279 267 275 280 280 308 309 319 313 318 318 318 320 315 317 323 321 312 308 308 307 308 309 310 310 309 308 306 302 298 295 293 291 287
240 241 240 244 256 258 267 267 273 277 282 273 276 279 285 312 310 310 307 307 307 312 314 310 315 316 313 311 311 311 308 311 310 309 308 307 306 303 300 300 298 297 299
241 240 240 244 252 257 265 263 264 272 275 274 283 280 285 299 297 296 285 290 301 315 310 313 317 317 312 310 311 309 307 308 307 307 307 304 302 301 304 301 299 298 297
244 246 246 244 253 247 256 265 267 288 269 269 273 283 285 291 293 289 297 292 308 312 313 313 314 314 315 315 314 312 312 308 305 305 305 303 300 301 300 296 296 296 296
247 254 258 266 262 262 260 271 283 281 278 274 284 290 280 287 287 282 292 297 305 310 308 308 311 312 313 311 311 313 313 308 305 304 304 302 300 300 301 298 297 294 297
247 253 254 255 265 261 261 271 275 279 270 268 285 288 276 287 287 292 300 311 310 307 310 308 312 313 312 314 314 315 312 307 304 304 305 305 304 301 301 300 296 295 299
248 252 255 256 250 255 261 263 270 276 273 273 278 275 281 285 277 283 292 297 298 303 311 309 311 311 312 314 311 310 308 306 306 305 305 303 300 300 304 303 300 301 304
241 246 250 249 253 254 262 263 268 266 259 264 259 261 268 266 278 287 287 294 296 306 308 309 311 312 313 312 312 309 307 309 309 304 302 301 300 302 305 303 302 303 306
245 247 249 251 254 261 263 261 261 261 261 264 258 253 266 289 297 287 290 294 301 307 310 309 308 309 310 312 313 311 310 309 306 305 305 304 303 303 302 303 304 306 309
245 244 247 250 256 258 259 262 263 261 261 265 265 269 278 291 284 288 300 299 305 305 302 303 304 305 310 312 312 310 307 304 304 302 302 307 308 304 301 297 298 303 310
246 245 246 247 250 255 258 265 261 272 262 260 275 293 279 281 291 302 304 300 299 298 299 301 303 308 309 308 307 305 301 299 298 300 304 305 304 298 296 300 308 315 321
245 243 246 248 252 258 259 262 270 276 281 287 288 281 285 298 301 298 297 298 298 299 300 301 302 302 301 300 298 296 296 294 294 300 304 302 296 282 290 301 310 320 326
248 245 246 248 252 254 259 267 273 274 279 283 281 287 296 295 294 297 299 299 300 299 299 300 301 299 298 296 293 291 291 292 292 297 301 295 284 281 291 305 312 317 317
235 236 243 250 256 262 263 268 272 275 276 286 298 293 290 294 296 297 298 297 296 297 299 299 298 297 294 292 290 288 288 291 296 297 296 290 284 282 294 303 309 313 317
221 239 245 252 257 260 263 266 268 270 282 292 293 292 295 298 298 299 298 298 297 298 298 297 295 293 291 290 289 289 287 288 292 291 289 288 287 288 293 299 302 305 310
239 237 250 246 250 254 258 271 290 291 292 288 292 296 298 298 300 300 299 299 299 298 297 296 294 292 289 288 286 285 287 286 286 285 287 287 290 291 292 292 293 297 303
266 261 250 269 284 298 286 283 287 289 292 294 302 308 307 305 303 302 301 299 298 298 298 296 294 291 289 288 286 285 285 284 285 285 286 288 288 287 288 288 289 292 296
303 291 288 290 289 289 292 297 302 306 307 307 306 303 303 303 303 304 303 299 296 294 294 293 293 291 288 287 286 283 282 283 284 285 285 284 286 287 289 289 289 292 293